Regional Weather Roundup
Issued by NWS

Home | Current Version | Previous Version | Graphics & Text | Print | Product List | Glossary On
Versions: 1 2 3 4 5 6 7 8 9 10 11 12 13 14 15 16 17 18 19 20 21 22 23 24 25 26 27 28 29 30 31 32 33 34 35 36 37 38 39 40 41 42 43 44 45 46 47 48 49 50
000
ASUS43 KMPX 301610
RWRMN
WEATHER ROUNDUP FOR MINNESOTA
NATIONAL WEATHER SERVICE TWIN CITIES/CHANHASSEN MN
1100 AM CDT MON MAR 30 2015


NOTE: "FAIR" INDICATES FEW OR NO CLOUDS BELOW 12,000 FEET WITH NO
SIGNIFICANT WEATHER AND/OR OBSTRUCTIONS TO VISIBILITY. N/A MEANS
CURRENT SKY AND/OR WEATHER CONDITIONS ARE NOT AVAILABLE.

MNZ060>063-068>070-301700-
   Twin Cities Metro

CITY           SKY/WX    TMP DP  RH WIND       PRES   REMARKS
TWIN CITIES    CLOUDY    43  29  57 SE3       29.96R
ST PAUL        CLOUDY    44  29  55 E5        29.96S
CRYSTAL        CLOUDY    45  29  53 SE3       29.94S
BLAINE         CLOUDY    46  32  57 CALM      29.94S
LAKEVILLE      CLOUDY    45  28  53 CALM      29.95S
EDEN PRAIRIE   CLOUDY    42  28  57 CALM      29.94S
SOUTH ST PAUL  CLOUDY    46  29  52 SE3       29.95S
LAKE ELMO      CLOUDY    43  32  65 E3        29.97R
$$
MNZ001>005-007-008-013>017-022>024-027-028-301700-
   Northwest Minnesota

CITY           SKY/WX    TMP DP  RH WIND       PRES   REMARKS
BEMIDJI        CLOUDY    40  33  75 E7        29.87F
HALLOCK        CLOUDY    41  36  81 E9        29.83F
ROSEAU         CLOUDY    39  32  75 CALM      29.86R
WARROAD        CLOUDY    37  34  87 SW5       29.87R
THIEF RVR FALL CLOUDY    43  34  70 SE8       29.85F
CROOKSTON      MIX PCPN  39  34  81 SE8       29.85F
FOSSTON        CLOUDY    39  37  93 CALM      29.87S
DETROIT LAKES  CLOUDY    45  30  57 SE6       29.86F
MOORHEAD       CLOUDY    46  36  66 CALM      29.86S
PARK RAPIDS    CLOUDY    44  32  62 NE10      29.86F
MAHNOMEN       CLOUDY    42  35  78 SE7       29.86F
$$
MNZ006-009>011-018-025>026-301700-
   North Central Minnesota

CITY           SKY/WX    TMP DP  RH WIND       PRES   REMARKS
BAUDETTE       CLOUDY    42  29  59 S6        29.84F
FLAG ISLAND    PTSUNNY   34  28  80 SE8       29.85R WCI  27
INTL FALLS     PTSUNNY   44  23  43 CALM      29.87F
WASKISH        CLOUDY    39  32  75 CALM      29.88S
BIG FORK       PTSUNNY   45  30  57 S3        29.88F
LONGVILLE      CLOUDY    43  30  61 SW5       29.90F
GRAND RAPIDS   CLOUDY    41  28  60 W5        29.90F
ORR            MOSUNNY   45  19  36 CALM      29.86S
COOK           MOSUNNY   45  25  45 W3        29.89S
WALKER         CLOUDY    40  30  66 CALM      29.90S
$$
MNZ012-019>021-037-301700-
   Northeast Minnesota

CITY           SKY/WX    TMP DP  RH WIND       PRES   REMARKS
DULUTH         PTSUNNY   47  21  35 NW7       29.91S
ELY            SUNNY     45  21  39 NW8       29.88R
HIBBING        PTSUNNY   48  22  35 W7        29.89F
EVELETH        MOSUNNY   45  25  45 NW5       29.90F
DULUTH HARBOR  MOSUNNY   46  30  53 CALM      29.94S
TWO HARBORS    MOSUNNY   52  28  40 NW6       29.89S
SILVER BAY     SUNNY     50  21  32 W7        29.88S
GRAND MARAIS     N/A     37  29  72 SW7       29.90S
G MARAIS ARPRT SUNNY     37  19  48 NW8       29.86S
$$
MNZ029>031-032-039>041-046>048-054>057-064-301700-
   West Central Minnesota

CITY           SKY/WX    TMP DP  RH WIND       PRES   REMARKS
FERGUS FALLS   CLOUDY    45  28  53 SE6       29.87S
WHEATON        PTSUNNY   52  32  46 S8        29.85F
MORRIS         PTSUNNY   45  34  65 SE9       29.85F
ALEXANDRIA     CLOUDY    43  31  62 SE8       29.86F
ELBOW LAKE     CLOUDY    42  33  69 SE7       29.85F
WADENA         CLOUDY    43  32  65 E7        29.87S
GLENWOOD       CLOUDY    43  32  65 E8        29.88S
APPLETON       PTSUNNY   55  28  35 SW5       29.85F
BENSON         CLOUDY    45  30  57 S6        29.87F
ORTONVILLE     MOSUNNY   55  32  41 SW3       29.84F
MADISON        PTSUNNY   61  28  29 W17G23    29.84F
WILLMAR        FAIR      45  30  57 SE8       29.89F
$$
MNZ033>034-036-042>043-049>051-058-059-301700-
   Central Minnesota

CITY           SKY/WX    TMP DP  RH WIND       PRES   REMARKS
ST CLOUD       CLOUDY    41  32  70 SE3       29.92S
SAUK CENTRE    PTSUNNY   41  32  71 E8        29.89F
PAYNESVILLE    CLOUDY    38  28  67 E3        29.90F
AITKIN         MIX PCPN  41  34  75 CALM      29.93S
PINE RIVER     LGT RAIN  39  34  81 N6        29.95S
BRAINERD       CLOUDY    41  30  65 E3        29.91F
STAPLES        CLOUDY    45  28  53 E3        29.88F
LONG PRAIRIE   DRIZZLE   41  32  70 E5        29.88F
LITTLE FALLS   CLOUDY    41  32  70 S5        29.91R
LITCHFIELD     CLOUDY    46  32  57 CALM      29.90F
BUFFALO        CLOUDY    41  30  65 CALM      29.95S
MAPLE LAKE     CLOUDY    43  33  67 SE3       29.94S
$$
MNZ037-044-045-052-053-301700-
   East Central Minnesota

CITY           SKY/WX    TMP DP  RH WIND       PRES   REMARKS
PRINCETON      LGT RAIN  43  34  70 CALM      29.92F
MORA           DRIZZLE   37  32  81 NE3       29.95F
CAMBRIDGE      CLOUDY    45  30  57 CALM      29.93S
RUSH CITY      CLOUDY    41  35  79 N7        29.95F
MOOSE LAKE     CLOUDY    43  30  61 CALM      29.92R
HINCKLEY       LGT RAIN  39  34  81 SW7       29.97R
CLOQUET        CLOUDY    46  23  39 S3        29.92R
MCGREGOR       CLOUDY    41  32  70 W6        29.94R
$$
MNZ071>073-080-081-089-090-097-098-301700-
   Southwest Minnesota

CITY           SKY/WX    TMP DP  RH WIND       PRES   REMARKS
MONTEVIDEO     PTSUNNY   57  37  47 SW5       29.87F
GRANITE FALLS  PTSUNNY   58  28  31 SW10      29.88F
CANBY          PTSUNNY   61  25  24 SW17G24   29.87F
MARSHALL       PTSUNNY   61  25  25 W23G29    29.88F
REDWOOD FALLS  CLOUDY    56  28  34 SW8       29.88F
OLIVIA         CLOUDY    46  32  57 SE5       29.88F
PIPESTONE      PTSUNNY   55  21  26 W15       29.91R
WINDOM         MOSUNNY   61  19  20 SW18      29.91F
WORTHINGTON    SUNNY     57  25  28 SW18      29.93F
JACKSON        SUNNY     59  19  21 SW16G22   29.94F
TRACY          MOSUNNY   60  25  25 W17G23    29.89F
SLAYTON        MOSUNNY   56  17  21 SW17G26   29.91F
$$
MNZ065>067-074>077-082>085-091>093-301700-
   South Central Minnesota

CITY           SKY/WX    TMP DP  RH WIND       PRES   REMARKS
MANKATO        CLOUDY    50  28  43 S3        29.93S
NEW ULM        CLOUDY    54  27  35 SW9       29.90F
ST JAMES       PTSUNNY   61  21  21 SW15      29.92F
FAIRMONT       CLOUDY    55  27  33 SW12      29.93F
GLENCOE        CLOUDY    43  34  69 E5        29.92F
FARIBAULT      CLOUDY    46  30  53 CALM      29.95F
OWATONNA       CLOUDY    48  30  49 CALM      29.95F
WASECA         CLOUDY    48  34  57 SW8       29.94F
ALBERT LEA     CLOUDY    55  30  38 SW6       29.95F
$$
MNZ078>079-086>088-094>096-301700-
   Southeast Minnesota

CITY           SKY/WX    TMP DP  RH WIND       PRES   REMARKS
ROCHESTER      PTSUNNY   48  33  56 W7        29.97F
RED WING       CLOUDY    45  30  57 CALM      29.97R
STANTON        CLOUDY    47  32  55 SW6       29.95S
DODGE CENTER   CLOUDY    45  34  65 CALM      29.96S
WINONA         CLOUDY    48  32  53 NW7       29.98S
AUSTIN         CLOUDY    50  34  53 SW8       29.95F
PRESTON        PTSUNNY   49  31  48 W10       29.98S
$$
ABBREVIATIONS USED IN REMARKS
   TC - TEMPERATURES IN CELSIUS
  WCI - WIND CHILL INDEX
   HX - HEAT INDEX
  VSB - VISIBILITY
$$


USA.gov is the U.S. government's official web portal to all federal, state and local government web resources and services.